Location: Poughquag
(41.6090°N, 73.6820°W)
Time: 10:16:08
(UTC-05:00)

Vanguard 1 - Pass Details

Date: 30 November 2023
Orbit: 653 x 3826 km, 34.3° (Epoch: 25 February)

Event Time Altitude Azimuth Distance (km) Brightness Sun altitude
Rises 19:08:57 0° 240° (WSW) 6,245 15.1 -29.9°
Reaches altitude 10° 19:12:31 10° 237° (WSW) 5,571 14.6 -30.6°
Maximum altitude 19:31:00 64° 162° (SSE) 3,936 12.8 -34.0°
Enters shadow 19:38:42 49° 110° (ESE) 4,489 12.8 -35.5°
Drops below altitude 10° 19:53:54 10° 88° (E) 6,698 - -38.3°
Sets 19:58:42 0° 86° (E) 7,506 - -39.2°
